User: anonymous   Login
Location: Olsztyn
(53.7767°N, 20.4765°E)
Time: 21:17:21
(UTC+01:00)
Language:

Transit 2A - Orbit

View from above orbital plane
View from above orbital plane
View from above satellite
View from above satellite

Ground track
Ground track

The orbit data is extracted from the following two-line orbital elements,

1 00045U 60007A   22024.90691213 -.00000039  00000-0  17447-4 0  9993
2 00045  66.6942 275.3457 0262002 249.3214 107.9620 14.33770368149904
Epoch (UTC): 24 January 2022 21:45:57
Eccentricity: 0.0262002
inclination: 66.6942°
perigee height: 591 km
apogee height: 966 km
right ascension of ascending node: 275.3457°
argument of perigee: 249.3214°
revolutions per day: 14.33770368
mean anomaly at epoch: 107.9620°
orbit number at epoch: 14990

The dashed part of the orbit path shows where the satellite is in the earth's shadow,  

DLR